Station DOMV2 - 8638511 - Dominion Terminal Associates, VA Image indicating link to RSS feed of recent meteorological observations for station DOMV2


Conditions at DOMV2 as of
(10:48 am EDT)
1448 GMT on 04/15/2024:
     

Click on the graph icon in the table below to see a time series plot of the last five days of that observation.

5-day plot - Wind Direction Wind Direction (WDIR): NW ( 310 deg true )
5-day plot - Wind Speed Wind Speed (WSPD): 2.9 kts
5-day plot - Wind Gust Wind Gust (GST): 4.1 kts
5-day plot - Atmospheric Pressure Atmospheric Pressure (PRES):29.92 in
5-day plot - Air Temperature Air Temperature (ATMP): 68.9 °F
5-day plot - Wind Speed at 10 Meters Wind Speed at 10 meters (WSPD10M): 3.9 kts
5-day plot - Wind Speed at 20 Meters Wind Speed at 20 meters (WSPD20M): 3.9 kts
5-day plot -  Wind Speed, Wind Gust and Atmospheric Pressure Combined plot of Wind Speed, Gust, and Air Pressure
NOS Water Level Observation Network Water Level
Previous observations
TIME
(EDT)
5-day plot - Wind Direction
WDIR
 
5-day plot - Wind Speed
WSPD
kts
5-day plot - Wind Gust
GST
kts
5-day plot - Wave Height
WVHT
ft
5-day plot - Dominant Wave Period
DPD
sec
5-day plot - Average Wave Period
APD
sec
5-day plot - Mean Wave Direction
MWD
 
5-day plot - Atmospheric Pressure
PRES
in
5-day plot - Pressure Tendency
PTDY
in
5-day plot - Air Temperature
ATMP
°F
5-day plot - Water Temperature
WTMP
°F
5-day plot - Dew Point
DEWP
°F
5-day plot - Salinity
SAL
psu
5-day plot - Visibility
VIS
nmi
5-day plot - Tide (above MLLW)
TIDE
ft
2024-04-15 10:42 am NW 2.9 4.1----29.92- 68.2-----
2024-04-15 10:36 amNNW 2.9 4.1----29.93- 66.0-----
2024-04-15 10:30 am NW 2.9 2.9----29.93-------
2024-04-15 10:24 am NW 2.9 2.9----29.93-------
2024-04-15 10:18 amWNW 2.9 4.1----29.93- 64.2-----
2024-04-15 10:12 am W 4.1 4.1----29.93- 64.0-----
2024-04-15 10:06 am W 4.1 5.1----29.93- 64.0-----
2024-04-15 10:00 amWNW 5.1 5.1----29.92+0.02 63.9-----
2024-04-15 09:54 am W 4.1 5.1----29.92- 63.7-----
2024-04-15 09:48 am NW 4.1 6.0----29.92- 65.1-----
2024-04-15 09:42 am NW 6.0 7.0----29.91- 64.0-----
2024-04-15 09:36 am NW 6.0 8.0----29.91- 64.6-----
2024-04-15 09:30 amWNW 7.0 8.9----29.91- 65.3-----
2024-04-15 09:24 am NW 8.0 8.0----29.91- 66.2-----
2024-04-15 09:18 am NW 7.0 7.0----29.91- 65.7-----
2024-04-15 09:12 am NW 7.0 8.0----29.91- 64.9-----
2024-04-15 09:06 am NW 7.0 8.0----29.91- 64.9-----
2024-04-15 09:00 am NW 7.0 8.0----29.91+0.04 64.8-----
2024-04-15 08:54 am NW 7.0 8.9----29.91- 64.8-----
2024-04-15 08:48 am NW 6.0 7.0----29.91- 64.6-----
2024-04-15 08:42 am NW 5.1 6.0----29.91- 64.8-----
2024-04-15 08:36 am NW 6.0 6.0----29.91- 64.0-----
2024-04-15 08:30 amWNW 6.0 8.9----29.91- 63.5-----
2024-04-15 08:24 am W 8.9 11.1----29.91- 63.9-----
2024-04-15 08:18 am W 11.1 12.0----29.91- 63.9-----
2024-04-15 08:12 am W 11.1 12.0----29.91- 64.0-----
2024-04-15 08:06 am W 12.0 15.0----29.91- 64.4-----
2024-04-15 08:00 am W 11.1 13.0----29.91+0.04 64.2-----
2024-04-15 07:54 am W 9.9 12.0----29.91- 63.9-----
2024-04-15 07:48 am W 8.9 11.1----29.91- 63.9-----
2024-04-15 07:42 am W 6.0 7.0----29.92- 63.7-----
2024-04-15 07:36 am NW 2.9 5.1----29.92- 63.5-----
2024-04-15 07:30 am NW 4.1 6.0----29.92- 63.5-----
2024-04-15 07:24 am NW 4.1 7.0----29.91- 63.9-----
2024-04-15 07:18 amNNW 4.1 6.0----29.91- 63.3-----
2024-04-15 07:12 amWNW 6.0 9.9----29.91- 62.8-----
2024-04-15 07:06 am W 6.0 8.0----29.90- 63.0-----
2024-04-15 07:00 am W 6.0 9.9----29.90+0.05 63.0-----
2024-04-15 06:54 am W 8.9 12.0----29.90- 63.3-----
2024-04-15 06:48 am W 8.9 12.0----29.89- 63.5-----
2024-04-15 06:42 am W 9.9 12.0----29.89- 63.9-----
2024-04-15 06:36 am W 6.0 6.0----29.89- 62.6-----
2024-04-15 06:30 am W 2.9 5.1----29.89- 63.0-----
2024-04-15 06:24 am N 2.9 4.1----29.89- 62.2-----
2024-04-15 06:18 am W 5.1 8.0----29.89- 62.6-----
2024-04-15 06:12 amWSW 8.0 12.0----29.88- 62.8-----
2024-04-15 06:06 amWSW 9.9 12.0----29.88- 63.0-----
2024-04-15 06:00 amWSW 11.1 14.0----29.87+0.03 62.8-----
2024-04-15 05:54 amWSW 13.0 15.0----29.87- 63.1-----
2024-04-15 05:48 amWSW 13.0 15.0----29.87- 63.0-----
2024-04-15 05:42 amWSW 13.0 15.9----29.87- 63.3-----
2024-04-15 05:36 am SW 13.0 14.0----29.87- 63.5-----
2024-04-15 05:30 am SW 12.0 13.0----29.87- 63.7-----
2024-04-15 05:24 am SW 11.1 12.0----29.87- 63.7-----
2024-04-15 05:18 am SW 8.9 9.9----29.87- 63.9-----
2024-04-15 05:12 am SW 5.1 6.0----29.87- 63.7-----
2024-04-15 05:06 am SW 2.9 5.1----29.87- 63.7-----
2024-04-15 05:00 am W 1.9 2.9----29.87+0.01 63.3-----
2024-04-15 04:54 am W 1.0 1.9----29.87- 63.1-----
2024-04-15 04:48 am- 0.0 4.1----29.87- 63.1-----
2024-04-15 04:42 am SW 4.1 6.0----29.87- 63.5-----
2024-04-15 04:36 am SW 6.0 11.1----29.87- 63.5-----
2024-04-15 04:30 am SW 8.9 11.1----29.86- 63.7-----
2024-04-15 04:24 am SW 9.9 13.0----29.86- 63.7-----
2024-04-15 04:18 am SW 11.1 14.0----29.86- 63.7-----
2024-04-15 04:12 am SW 13.0 15.9----29.85- 63.7-----
2024-04-15 04:06 am SW 14.0 15.9----29.85- 63.7-----
2024-04-15 04:00 am SW 15.0 15.9----29.85-0.02 63.7-----
2024-04-15 03:54 am SW 15.0 17.1----29.85- 63.7-----
2024-04-15 03:48 am SW 14.0 17.1----29.85- 63.7-----
2024-04-15 03:42 am SW 15.0 17.1----29.85- 63.9-----
2024-04-15 03:36 am SW 15.0 18.1----29.85- 63.9-----
2024-04-15 03:30 am SW 15.0 17.1----29.85- 64.0-----
2024-04-15 03:24 am SW 15.9 18.1----29.85- 64.2-----
2024-04-15 03:18 am SW 15.0 18.1----29.84- 64.6-----
2024-04-15 03:12 am SW 15.9 18.1----29.84- 64.9-----
2024-04-15 03:06 am SW 15.9 20.0----29.84- 65.1-----
2024-04-15 03:00 am SW 15.0 21.0----29.85-0.03 65.1-----
2024-04-15 02:54 am SW 15.9 21.0----29.85- 65.8-----
2024-04-15 02:48 am SW 15.0 18.1----29.85- 65.7-----
2024-04-15 02:42 am SW 15.0 19.0----29.85- 65.7-----
2024-04-15 02:36 am SW 15.0 19.0----29.85- 66.6-----
2024-04-15 02:30 am SW 15.9 18.1----29.85- 66.6-----
2024-04-15 02:24 am SW 15.0 19.0----29.85- 66.7-----
2024-04-15 02:18 am SW 15.9 22.0----29.85- 66.6-----
2024-04-15 02:12 am SW 19.0 24.1----29.85- 67.8-----
2024-04-15 02:06 am SW 19.0 22.0----29.85- 67.8-----
2024-04-15 02:00 am SW 18.1 25.1----29.86-0.02 67.5-----
2024-04-15 01:54 am SW 19.0 22.0----29.85- 68.0-----
2024-04-15 01:48 am SW 19.0 22.9----29.86- 67.8-----
2024-04-15 01:42 am SW 20.0 28.0----29.86- 68.0-----
2024-04-15 01:36 am SW 19.0 22.9----29.86- 67.6-----
2024-04-15 01:30 am SW 18.1 21.0----29.86- 66.9-----
2024-04-15 01:24 am SW 19.0 21.0----29.86- 66.9-----
2024-04-15 01:18 am SW 19.0 21.0----29.87- 66.9-----
2024-04-15 01:12 am SW 18.1 21.0----29.87- 66.7-----
2024-04-15 01:06 am SW 19.0 21.0----29.87- 67.1-----
2024-04-15 01:00 am SW 18.1 22.0----29.87+0.00 67.1-----
2024-04-15 12:54 am SW 18.1 21.0----29.87- 66.7-----
2024-04-15 12:48 am SW 18.1 21.0----29.87- 66.7-----
2024-04-15 12:42 am SW 17.1 19.0----29.87- 66.6-----
2024-04-15 12:36 am SW 15.9 18.1----29.87- 66.2-----
2024-04-15 12:30 am SW 17.1 20.0----29.87- 66.7-----
2024-04-15 12:24 am SW 17.1 18.1----29.87- 66.9-----
2024-04-15 12:18 am SW 15.9 19.0----29.87- 66.7-----
2024-04-15 12:12 am SW 15.9 18.1----29.87- 67.1-----
2024-04-15 12:06 am SW 15.9 19.0----29.87- 67.1-----
2024-04-15 12:00 am SW 14.0 19.0----29.88+0.02 67.5-----
2024-04-14 11:54 pm SW 17.1 20.0----29.87- 67.6-----
2024-04-14 11:48 pm SW 15.9 18.1----29.87- 67.5-----
2024-04-14 11:42 pm SW 15.9 18.1----29.87- 67.1-----
2024-04-14 11:36 pm SW 15.9 18.1----29.88- 67.3-----
2024-04-14 11:30 pm SW 15.0 17.1----29.88- 67.3-----
2024-04-14 11:24 pm SW 15.0 17.1----29.88- 67.5-----
2024-04-14 11:18 pm SW 14.0 15.0----29.88- 67.3-----
2024-04-14 11:12 pm SW 13.0 15.0----29.88- 66.9-----
2024-04-14 11:06 pm SW 12.0 14.0----29.88- 66.6-----
2024-04-14 11:00 pm SW 12.0 14.0----29.88+0.01 66.7-----
2024-04-14 10:54 pm SW 13.0 15.9----29.88- 67.5-----
2024-04-14 10:48 pm SW 13.0 15.0----29.88- 67.3-----
2024-04-14 10:42 pm SW 12.0 14.0----29.88- 67.3-----
2024-04-14 10:36 pm SW 12.0 14.0----29.88- 67.3-----
2024-04-14 10:30 pmSSW 13.0 15.0----29.88- 68.0-----
2024-04-14 10:24 pmSSW 13.0 14.0----29.88- 68.0-----
2024-04-14 10:18 pmSSW 13.0 15.0----29.88- 68.7-----
2024-04-14 10:12 pmSSW 13.0 14.0----29.88- 68.4-----
2024-04-14 10:06 pmSSW 13.0 14.0----29.88- 68.4-----
2024-04-14 10:00 pm SW 13.0 15.9----29.88+0.00 68.5-----
2024-04-14 09:54 pmSSW 13.0 15.0----29.88- 68.9-----
2024-04-14 09:48 pm SW 13.0 15.9----29.87- 68.5-----
2024-04-14 09:42 pmSSW 14.0 15.9----29.87- 69.1-----
2024-04-14 09:36 pmSSW 15.0 17.1----29.86- 69.1-----
2024-04-14 09:30 pmSSW 14.0 17.1----29.86- 69.3-----
2024-04-14 09:24 pmSSW 13.0 15.9----29.86- 70.2-----
2024-04-14 09:18 pmSSW 15.0 17.1----29.86- 69.6-----
2024-04-14 09:12 pmSSW 15.0 18.1----29.86- 70.0-----
2024-04-14 09:06 pmSSW 15.0 17.1----29.86- 69.4-----
2024-04-14 09:00 pmSSW 15.0 17.1----29.86-0.04 69.8-----
2024-04-14 08:54 pmSSW 15.0 17.1----29.86- 69.8-----
2024-04-14 08:48 pmSSW 15.0 17.1----29.86-------
2024-04-14 08:42 pmSSW 14.0 15.0----29.86-------
2024-04-14 08:36 pmSSW 12.0 14.0----29.86-------
2024-04-14 08:30 pm-------29.86- 70.0-----
2024-04-14 08:24 pm-------29.86- 70.2-----
2024-04-14 08:18 pmSSW 13.0 14.0------ 70.2-----
2024-04-14 08:12 pmSSW 12.0 14.0------ 70.2-----
2024-04-14 08:06 pmSSW 12.0 14.0------ 70.2-----
2024-04-14 08:00 pmSSW 13.0 14.0----29.87-0.03 70.5-----
2024-04-14 07:54 pmSSW 11.1 13.0----29.87- 70.7-----
2024-04-14 07:48 pmSSW 12.0 14.0----29.87- 70.7-----
2024-04-14 07:42 pmSSW 12.0 14.0----29.87- 70.9-----
2024-04-14 07:36 pmSSW 12.0 14.0----29.87- 71.4-----
2024-04-14 07:30 pmSSW 12.0 14.0----29.87- 71.2-----
2024-04-14 07:24 pmSSW 12.0 15.0----29.87- 71.1-----
2024-04-14 07:00 pm SW 12.0 14.0----29.88-0.05------
2024-04-14 06:54 pm SW 14.0 15.0----29.88-------
2024-04-14 06:48 pm SW 12.0 14.0----29.89- 70.3-----
2024-04-14 06:42 pm SW 11.1 13.0----29.89- 69.6-----
2024-04-14 06:36 pm SW 12.0 13.0----29.89- 69.8-----
2024-04-14 06:30 pm SW 13.0 14.0----29.90- 70.3-----
2024-04-14 06:24 pm SW 14.0 18.1----29.90- 71.1-----
2024-04-14 06:18 pm SW 17.1 19.0----29.90- 71.8-----
2024-04-14 06:12 pm SW 15.9 19.0----29.90- 71.8-----
2024-04-14 06:06 pm SW 15.0 17.1----29.90- 71.6-----
2024-04-14 06:00 pm SW 17.1 18.1----29.90-0.06 72.0-----
2024-04-14 05:54 pm SW 15.0 18.1----29.90- 71.1-----
2024-04-14 05:48 pm SW 15.9 18.1----29.90-------
2024-04-14 05:42 pm SW 14.0 18.1----29.90-------
2024-04-14 05:36 pm SW 14.0 15.9----29.90-------
2024-04-14 05:30 pm SW 15.9 19.0----29.90-------
2024-04-14 05:24 pm SW 17.1 19.0----29.90-------
2024-04-14 05:18 pm SW 13.0 15.9----29.91- 70.7-----
2024-04-14 05:12 pm SW 15.0 17.1----29.90- 71.8-----
2024-04-14 05:06 pm SW 13.0 15.9----29.91- 70.5-----
2024-04-14 05:00 pm SW 15.0 20.0----29.90-0.09 72.0-----
2024-04-14 04:54 pm SW 15.0 19.0----29.90- 72.0-----
2024-04-14 04:48 pm SW 13.0 17.1----29.91- 70.7-----
2024-04-14 04:42 pm SW 15.0 17.1----29.91- 71.4-----
2024-04-14 04:36 pm SW 14.0 17.1----29.91- 69.6-----
2024-04-14 04:30 pmSSW 14.0 19.0----29.91- 70.3-----
2024-04-14 04:24 pmSSW 15.9 18.1----29.92- 71.1-----
2024-04-14 04:18 pmSSW 15.9 20.0----29.92- 70.9-----
2024-04-14 04:12 pmSSW 15.9 19.0----29.92- 70.5-----
2024-04-14 04:06 pm SW 15.0 20.0----29.93- 70.3-----
2024-04-14 04:00 pm SW 14.0 15.9----29.93-0.11 69.3-----
2024-04-14 03:54 pm SW 14.0 18.1----29.93- 69.3-----
2024-04-14 03:48 pmSSW 14.0 20.0----29.93- 70.2-----
2024-04-14 03:42 pmSSW 17.1 19.0----29.93- 70.5-----
2024-04-14 03:36 pm SW 12.0 15.0----29.94- 68.7-----
2024-04-14 03:30 pmSSW 15.0 21.0----29.94- 69.6-----
2024-04-14 03:24 pm SW 15.9 19.0----29.94- 70.0-----
2024-04-14 03:18 pmSSW 15.9 19.0----29.95- 70.9-----
2024-04-14 03:12 pm SW 15.0 20.0----29.95- 69.4-----
2024-04-14 03:06 pmSSW 15.0 19.0----29.96- 69.4-----
2024-04-14 03:00 pmSSW 14.0 17.1----29.96-0.12------
2024-04-14 02:54 pmSSW 18.1 20.0----29.96-------
2024-04-14 02:48 pmSSW 15.0 20.0----29.97- 69.8-----
2024-04-14 02:42 pmSSW 17.1 19.0----29.97- 70.2-----
2024-04-14 02:36 pmSSW 14.0 17.1----29.97- 69.3-----
2024-04-14 02:30 pmSSW 15.0 18.1----29.98- 69.6-----
2024-04-14 02:24 pmSSW 12.0 14.0----29.98- 68.4-----
2024-04-14 02:18 pmSSW 14.0 17.1----29.99- 69.3-----
2024-04-14 02:12 pmSSW 12.0 14.0----29.99- 67.8-----
2024-04-14 02:06 pm SW 13.0 15.9----30.00- 68.2-----
2024-04-14 02:00 pmSSW 12.0 15.0----30.00-0.11 69.4-----
2024-04-14 01:54 pmSSW 11.1 13.0----30.00- 67.6-----
2024-04-14 01:48 pmSSW 13.0 15.9----30.01- 67.6-----
2024-04-14 01:42 pmSSW 12.0 15.0----30.01- 68.4-----
2024-04-14 01:36 pm SW 15.0 18.1----30.02- 68.5-----
2024-04-14 01:30 pm SW 13.0 15.9----30.02- 67.5-----
2024-04-14 01:24 pm SW 12.0 15.0----30.03- 67.6-----
2024-04-14 01:18 pm SW 12.0 14.0----30.03- 67.3-----
2024-04-14 01:12 pmSSW 13.0 15.0----30.03- 67.6-----
2024-04-14 01:06 pm SW 12.0 14.0----30.03- 66.6-----
2024-04-14 01:00 pmSSW 12.0 14.0----30.04-0.09 67.8-----
2024-04-14 12:54 pm SW 13.0 14.0----30.04- 66.9-----
2024-04-14 12:48 pm SW 11.1 15.0----30.05-------
2024-04-14 12:42 pm SW 12.0 14.0----30.05-------
2024-04-14 12:36 pm SW 14.0 15.0----30.06-------
2024-04-14 12:30 pm SW 12.0 13.0----30.06-------
2024-04-14 12:24 pm SW 8.0 11.1----30.06-------
2024-04-14 12:18 pm SW 9.9 12.0----30.06- 65.8-----
2024-04-14 12:12 pm SW 7.0 9.9----30.07- 66.4-----
2024-04-14 12:06 pm SW 7.0 8.9----30.07- 66.6-----
2024-04-14 12:00 pmSSW 7.0 8.9----30.08-0.04 65.5-----
2024-04-14 11:54 amSSW 8.0 8.9----30.08- 65.3-----
2024-04-14 11:48 amSSW 8.0 8.9----30.08- 65.3-----
2024-04-14 11:42 amSSW 8.0 9.9----30.09- 65.1-----
2024-04-14 11:36 amSSW 8.0 11.1----30.09- 64.8-----
2024-04-14 11:30 am S 8.0 9.9----30.09-------
2024-04-14 11:24 am S 8.0 8.9----30.10-------
2024-04-14 11:18 am S 7.0 8.9----30.10-------
2024-04-14 11:12 amSSW 8.0 8.9----30.10-------
2024-04-14 11:06 am S 8.0 9.9----30.11-------
2024-04-14 11:00 am S 7.0 8.9----30.11-0.01 63.7-----
2024-04-14 10:54 am S 8.0 8.9----30.11- 64.0-----